This demonstration page uses our WeatherBlox Daily Observations layout. Learn more.

Left ArrowRight Arrow

39.12711, -84.51439

Hourly Observations for September 26, 2021

Temp ( °F °C ) Dew Point ( °F °C ) Humidity (%) Winds ( mph kmh ) Pressure ( in mb ) Visibility ( mi km ) Precip ( " mm )
12:53 am 00:53 Clear 49 9.4 48 8.9 97 97 Calm 30.09 1019 10 16 0.00 0.00
1:53 am 01:53 Clear with Mist and Fog 47 8.3 47 8.3 100 100 Calm 30.09 1019 2 3 0.00 0.00
2:00 am 02:00 Clear with Mist and Fog 47 8.3 47 8.3 100 100 Calm 30.10 1019 2 2 0.00 0.00
2:04 am 02:04 Clear with Mist and Fog 47 8.3 47 8.3 100 100 Calm 30.11 1020 3 5 0.00 0.00
2:49 am 02:49 Clear with Mist and Fog 46 8 46 8 100 100 Calm 30.10 1019 3 4 0.00 0.00
2:53 am 02:53 Clear with Mist and Fog 47 8.3 47 8.3 100 100 Calm 30.09 1019 3 5 0.00 0.00
3:53 am 03:53 Clear with Mist and Fog 47 8.3 47 8.3 100 100 Calm 30.09 1019 6 10 0.00 0.00
4:22 am 04:22 Clear with Mist and Fog 46 7.8 46 7.8 100 100 Calm 30.11 1020 1 2 0.00 0.00
4:30 am 04:30 Clear with Mist and Fog 46 7.8 46 7.8 100 100 Calm 30.11 1020 1 1 0.00 0.00
4:38 am 04:38 Clear with Mist and Fog 45 7.2 45 7.2 100 100 Calm 30.11 1020 1 2 0.00 0.00
4:53 am 04:53 Clear with Mist and Fog 46 7.8 46 7.8 100 100 Calm 30.10 1019 2 3 0.00 0.00
5:00 am 05:00 Clear with Mist and Fog 45 7.2 45 7.2 100 100 Calm 30.11 1020 2 3 0.00 0.00
5:10 am 05:10 Clear with Mist and Fog 45 7.2 45 7.2 100 100 Calm 30.12 1020 2 2 0.00 0.00
5:15 am 05:15 Clear with Mist and Fog 45 7.2 45 7.2 100 100 Calm 30.12 1020 3 5 0.00 0.00
5:53 am 05:53 Clear with Mist and Fog 45 7.2 45 7.2 100 100 Calm 30.11 1020 6 10 0.00 0.00
6:06 am 06:06 Partly Cloudy 45 7.2 45 7.2 100 100 Calm 30.12 1020 9 14 0.00 0.00
6:48 am 06:48 Mostly Cloudy with Mist and Fog 45 7 45 7 100 100 Calm 30.13 1020 1 2 0.00 0.00
6:53 am 06:53 Partly Cloudy with Mist and Fog 42 5.6 42 5.6 100 100 Calm 30.11 1020 6 10 0.00 0.00
7:53 am 07:53 Mostly Cloudy with Patchy Fog 44 6.7 44 6.7 100 100 Calm 30.13 1020 10 16 0.00 0.00
8:53 am 08:53 Sunny 50 10 49 9.4 96 96 Calm 30.13 1020 10 16 0.00 0.00
9:53 am 09:53 Sunny 58 14.4 50 10 75 75 SSW 3 6 30.14 1021 10 16 0.00 0.00
10:53 am 10:53 Sunny 64 17.8 51 10.6 63 63 S 6 9 30.14 1021 10 16 0.00 0.00
11:53 am 11:53 Sunny 71 21.7 48 8.9 44 44 SW 8 13 30.14 1021 10 16 0.00 0.00
12:53 pm 12:53 Sunny 73 22.8 45 7.2 37 37 VRB 7 11 30.13 1020 10 16 0.00 0.00
1:53 pm 13:53 Sunny 75 23.9 48 8.9 39 39 SSW 10 17 30.11 1020 10 16 0.00 0.00
2:53 pm 14:53 Sunny 75 23.9 46 7.8 36 36 SW 12 19 30.08 1019 10 16 0.00 0.00
3:53 pm 15:53 Sunny 75 23.9 46 7.8 36 36 S 12 19 30.06 1018 10 16 0.00 0.00
4:53 pm 16:53 Sunny 76 24.4 46 7.8 35 35 SW 8 13 30.05 1018 10 16 0.00 0.00
5:53 pm 17:53 Sunny 73 22.8 48 8.9 41 41 SSW 10 17 30.05 1018 10 16 0.00 0.00
6:53 pm 18:53 Sunny 67 19.4 52 11.1 59 59 S 6 9 30.05 1018 10 16 0.00 0.00
7:53 pm 19:53 Clear 64 17.8 52 11.1 65 65 S 5 7 30.05 1018 10 16 0.00 0.00
8:53 pm 20:53 Clear 60 15.6 54 12.2 80 80 Calm 30.05 1018 10 16 0.00 0.00
9:53 pm 21:53 Clear 58 14.4 53 11.7 84 84 Calm 30.06 1018 10 16 0.00 0.00
10:53 pm 22:53 Clear 55 12.8 53 11.7 93 93 Calm 30.05 1018 10 16 0.00 0.00
11:53 pm 23:53 Clear 55 12.8 54 12.2 96 96 S 3 6 30.05 1018 10 16 0.00 0.00

Powered by AerisWeather